Douglas Bisbee, AZ

4:37 AM MST on February 24, 2018 (GMT -0700)
Bisbee Douglas International

Weather History for KDUG - October, 2012

Change the Weather History Date:

Thursday, October 11, 2012

  Actual Average Record
Temperature  
Mean Temperature 69 °F 66 °F  
Max Temperature 83 °F 83 °F 93 °F (1950)
Min Temperature 54 °F 50 °F 34 °F (1973)
Degree Days  
Heating Degree Days 0 1  
Month to date heating degree days 0 9  
Since 1 July heating degree days 1 11  
Cooling Degree Days 4 2  
Month to date cooling degree days 49 40  
Year to date cooling degree days 2038 1791  
Growing Degree Days 18 (Base 50)    
Moisture  
Dew Point 41 °F    
Average Humidity 39    
Maximum Humidity 59    
Minimum Humidity 18    
Precipitation  
Precipitation T in 0.03 in 1.31 in (2000)
Month to date precipitation T 0.38  
Year to date precipitation 7.15 10.93  
Snow  
Snow 0.00 in - - ()
Month to date snowfall 0.0  
Snow Depth 0.00 in    
Sea Level Pressure  
Sea Level Pressure 29.89 in    
Wind  
Wind Speed 11 mph (SSE)    
Max Wind Speed 25 mph    
Max Gust Speed 32 mph    
Visibility 10 miles    
Events      
T = Trace of Precipitation, MM = Missing Value Source: NWS Daily Summary

Daily Weather History Graph

Daily Weather History Graph

Search for Another Location

Airport or City:

Trip Planner

Search our weather history database for the weather conditions in past years. The results will help you decide how hot, cold, wet, or windy it might be!

Date:

Astronomy

Oct. 11, 2012 Rise Set
Actual Time 6:19 AM MST 5:50 PM MST
Civil Twilight 5:54 AM MST 6:14 PM MST
Nautical Twilight 5:26 AM MST 6:42 PM MST
Astronomical Twilight 4:58 AM MST 7:11 PM MST
Moon 2:15 AM MST (10/11) 3:16 PM MST (10/11)
Length of Visible Light 12h 20m
Length of Day
11h 31m
Waning Crescent, 17% of the Moon is Illuminated
Oct 11
Waning Crescent
Oct 15
New
Oct 21
First Quarter
Oct 29
Full
Nov 6
Last Quarter

Hourly Weather History & Observations

Time (MST) Temp. Dew Point Humidity Pressure Visibility Wind Dir Wind Speed Gust Speed Precip Events Conditions
12:56 AM 59.0 °F 36.0 °F 42% 29.88 in 10.0 mi SE 6.9 mph - N/A   Clear
1:56 AM 57.9 °F 37.0 °F 46% 29.87 in 10.0 mi ESE 8.1 mph - N/A   Scattered Clouds
2:56 AM 59.0 °F 39.0 °F 48% 29.87 in 10.0 mi SE 5.8 mph - N/A   Overcast
3:56 AM 61.0 °F 42.1 °F 50% 29.86 in 10.0 mi East 5.8 mph - 0.00 in   Overcast
4:56 AM 60.8 °F 44.6 °F 55% 30.05 in 10.0 mi ESE 3.5 mph - N/A   Mostly Cloudy
5:56 AM 59.0 °F 44.1 °F 58% 29.88 in 10.0 mi SE 5.8 mph - N/A   Clear
6:56 AM 55.0 °F 41.0 °F 59% 29.91 in 10.0 mi North 5.8 mph - N/A   Clear
7:56 AM 63.0 °F 43.0 °F 48% 29.92 in 10.0 mi SE 4.6 mph - N/A   Clear
8:56 AM 68.0 °F 42.1 °F 39% 29.92 in 10.0 mi South 3.5 mph - N/A   Partly Cloudy
9:56 AM 75.9 °F 41.0 °F 29% 29.90 in 10.0 mi South 15.0 mph - N/A   Partly Cloudy
10:56 AM 75.9 °F 39.0 °F 26% 29.91 in 10.0 mi SSE 20.7 mph 26.5 mph N/A   Scattered Clouds
11:56 AM 75.9 °F 37.9 °F 25% 29.88 in 10.0 mi SSE 16.1 mph 25.3 mph N/A   Partly Cloudy
12:56 PM 82.0 °F 37.0 °F 20% 29.84 in 10.0 mi South 16.1 mph 24.2 mph N/A   Scattered Clouds
1:56 PM 80.6 °F 33.8 °F 18% 30.01 in 10.0 mi SSW 16.1 mph - N/A   Clear
2:56 PM 80.1 °F 39.9 °F 24% 29.82 in 10.0 mi South 16.1 mph 26.5 mph N/A   Clear
3:56 PM 78.8 °F 39.2 °F 24% 30.00 in 10.0 mi South 24.2 mph 29.9 mph N/A   Clear
4:56 PM 80.1 °F 39.0 °F 23% 29.81 in 10.0 mi South 18.4 mph 29.9 mph N/A   Clear
5:56 PM 78.8 °F 41.0 °F 26% 30.00 in 10.0 mi South 15.0 mph - N/A   Partly Cloudy
6:56 PM 73.9 °F 42.1 °F 32% 29.86 in 10.0 mi South 10.4 mph - N/A   Clear
7:56 PM 72.0 °F 42.1 °F 34% 29.86 in 10.0 mi South 11.5 mph - N/A   Clear
8:56 PM 71.1 °F 43.0 °F 36% 29.86 in 10.0 mi South 11.5 mph - N/A   Clear
9:56 PM 69.1 °F 43.0 °F 39% 29.85 in 10.0 mi South 12.7 mph - N/A   Clear
10:56 PM 66.0 °F 44.1 °F 45% 29.85 in 10.0 mi SSE 9.2 mph - N/A   Clear
11:56 PM 66.9 °F 46.0 °F 47% 29.84 in 10.0 mi South 11.5 mph - N/A   Clear